BRIDGEPORT/SIKORSKI current weather conditions

sailwx.info

Wind from 270 at 6 knots

Air temperature 1.0° C
Visibility: greater than 8.7 NM
Dewpoint -7.0° C

Last reported at 2019-Dec-06 08:05 UTC.
Time now 2019-Dec-06 08:51 UTC

Location: N 41°10' W 073°08'.
View on Google Maps.

See reports from other nearby stations

  
Tides and Currents Weather Stations Pressure Air Temp Water Temp Dewpoint Dewpoint Depression Visibility Wind Speed Wind Dir Waves Ship Positions
date/time (UTC)wind fromknots sea level pressurealtimeterstation pressurevisibilityair tempwater tempwave heightnotes
2019-Dec-06 08:05 270 6 8.7 1.0
2019-Dec-06 08:00 280 8 8.7 1.0
2019-Dec-06 07:55 270 7 8.7 1.0
2019-Dec-06 07:52 270 7 8.7 1.7
2019-Dec-06 07:50 270 8 8.7 2.0
2019-Dec-06 07:45 260 9 8.7 2.0
2019-Dec-06 07:40 260 9 8.7 1.0
2019-Dec-06 07:35 280 9 8.7 1.0
2019-Dec-06 07:30 280 9 8.7 1.0
2019-Dec-06 07:25 270 8 8.7 1.0
2019-Dec-06 07:20 280 7 8.7 1.0
2019-Dec-06 07:15 270 10 8.7 2.0
2019-Dec-06 07:10 270 9 8.7 1.0
2019-Dec-06 07:05 280 8 8.7 1.0
2019-Dec-06 07:00 280 10 8.7 1.0
2019-Dec-06 06:55 280 7 8.7 1.0
2019-Dec-06 06:52 280 6 8.7 0.6
2019-Dec-06 06:50 280 5 8.7 1.0
2019-Dec-06 06:45 280 6 8.7 1.0
2019-Dec-06 06:40 260 6 8.7 1.0
2019-Dec-06 06:35 260 6 8.7 1.0
2019-Dec-06 06:30 270 8 8.7 2.0
2019-Dec-06 06:25 270 8 8.7 2.0
2019-Dec-06 06:20 270 9 8.7 2.0
2019-Dec-06 06:15 270 7 8.7 2.0
2019-Dec-06 06:10 270 7 8.7 2.0
2019-Dec-06 06:05 270 6 8.7 2.0
2019-Dec-06 06:00 280 6 8.7 2.0
2019-Dec-06 05:55 280 8 8.7 2.0
2019-Dec-06 05:52 280 7 8.7 1.7
2019-Dec-06 05:50 280 8 8.7 2.0
2019-Dec-06 05:45 270 9 8.7 2.0
2019-Dec-06 05:40 270 7 8.7 2.0
2019-Dec-06 05:35 270 7 8.7 2.0
2019-Dec-06 05:30 280 6 8.7 2.0
2019-Dec-06 05:25 270 7 8.7 2.0
2019-Dec-06 05:20 280 7 8.7 2.0
2019-Dec-06 05:15 280 8 8.7 2.0
2019-Dec-06 05:10 270 8 8.7 2.0
2019-Dec-06 05:05 280 6 8.7 2.0
2019-Dec-06 05:00 270 5 8.7 2.0
2019-Dec-06 04:55 280 5 8.7 2.0
2019-Dec-06 04:52 280 5 8.7 2.2
2019-Dec-06 04:50 270 5 8.7 2.0
2019-Dec-06 04:45 280 6 8.7 2.0
2019-Dec-06 04:40 280 6 8.7 2.0
2019-Dec-06 04:35 280 5 8.7 2.0
2019-Dec-06 04:30 280 5 8.7 2.0
2019-Dec-06 04:25 280 6 8.7 2.0
2019-Dec-06 04:20 280 5 8.7 2.0
2019-Dec-06 04:15 280 6 8.7 2.0
2019-Dec-06 04:10 280 6 8.7 2.0
2019-Dec-06 04:05 280 6 8.7 3.0
2019-Dec-06 04:00 280 6 8.7 3.0
2019-Dec-06 03:55 270 4 8.7 3.0
2019-Dec-06 03:52 270 5 8.7 2.8
2019-Dec-06 03:50 270 5 8.7 3.0
2019-Dec-06 03:45 270 6 8.7 2.0
2019-Dec-06 03:40 270 5 8.7 2.0
2019-Dec-06 03:35 290 9 8.7 2.0
2019-Dec-06 03:30 280 7 8.7 2.0
2019-Dec-06 03:25 280 9 8.7 2.0
2019-Dec-06 03:20 290 9 8.7 2.0
2019-Dec-06 03:15 290 11 8.7 3.0
2019-Dec-06 03:10 290 11 8.7 2.0
2019-Dec-06 03:05 290 7 8.7 2.0
2019-Dec-06 03:00 280 9 8.7 2.0
2019-Dec-06 02:55 280 10 8.7 2.0
2019-Dec-06 02:52 280 6 gusting 14 8.7 2.2
2019-Dec-06 02:50 280 8 8.7 2.0
2019-Dec-06 02:45 280 6 8.7 2.0
2019-Dec-06 02:40 280 9 8.7 3.0
2019-Dec-06 02:35 280 7 8.7 3.0
2019-Dec-06 02:30 290 13 8.7 3.0
2019-Dec-06 02:25 270 10 gusting 15 8.7 3.0
2019-Dec-06 02:20 280 10 8.7 3.0
2019-Dec-06 02:15 280 12 8.7 3.0
2019-Dec-06 02:10 280 10 8.7 2.0
2019-Dec-06 02:05 280 12 8.7 3.0
2019-Dec-06 02:00 280 11 8.7 3.0
2019-Dec-06 01:55 280 12 8.7 3.0
2019-Dec-06 01:52 280 8 8.7 2.8
2019-Dec-06 01:50 290 11 8.7 3.0
2019-Dec-06 01:45 270 8 8.7 3.0
2019-Dec-06 01:40 270 11 8.7 3.0
2019-Dec-06 01:35 270 12 gusting 17 8.7 3.0
2019-Dec-06 01:30 270 10 8.7 3.0
2019-Dec-06 01:25 280 15 8.7 3.0
2019-Dec-06 01:20 280 10 8.7 3.0
2019-Dec-06 01:15 280 11 8.7 3.0
2019-Dec-06 01:10 270 10 8.7 3.0
2019-Dec-06 01:05 270 9 8.7 3.0
2019-Dec-06 01:00 270 11 8.7 3.0
2019-Dec-06 00:55 280 11 gusting 16 8.7 3.0
2019-Dec-06 00:52 280 8 gusting 18 8.7 2.8
2019-Dec-06 00:50 280 9 8.7 3.0
2019-Dec-06 00:45 280 12 8.7 3.0
2019-Dec-06 00:40 280 9 8.7 3.0
2019-Dec-06 00:35 270 9 8.7 3.0
2019-Dec-06 00:30 270 13 8.7 3.0
2019-Dec-06 00:25 280 10 8.7 3.0
2019-Dec-06 00:20 270 11 8.7 3.0
2019-Dec-06 00:15 280 12 8.7 3.0
2019-Dec-06 00:10 270 12 8.7 3.0
2019-Dec-06 00:05 270 12 8.7 3.0
2019-Dec-06 00:00 270 10 8.7 3.0
2019-Dec-05 23:55 260 9 8.7 3.0
2019-Dec-05 23:52 260 9 8.7 3.3
2019-Dec-05 23:50 250 9 8.7 3.0
2019-Dec-05 23:45 240 9 8.7 3.0
2019-Dec-05 23:40 250 6 8.7 3.0
2019-Dec-05 23:35 260 7 8.7 3.0
2019-Dec-05 23:30 260 6 8.7 3.0
2019-Dec-05 23:25 270 9 8.7 3.0
2019-Dec-05 23:20 260 7 8.7 3.0
2019-Dec-05 23:15 270 9 8.7 3.0
2019-Dec-05 23:10 270 7 8.7 3.0
2019-Dec-05 23:05 270 8 8.7 3.0
2019-Dec-05 23:00 270 7 8.7 3.0
2019-Dec-05 22:55 270 8 8.7 3.0
2019-Dec-05 22:52 280 7 8.7 3.3
2019-Dec-05 22:50 280 9 8.7 3.0
2019-Dec-05 22:45 280 10 8.7 3.0
2019-Dec-05 22:40 280 10 8.7 4.0
2019-Dec-05 22:35 280 12 8.7 4.0
2019-Dec-05 22:30 280 10 gusting 15 8.7 4.0
2019-Dec-05 22:25 270 9 8.7 4.0
2019-Dec-05 22:20 280 12 gusting 17 8.7 4.0
2019-Dec-05 22:15 270 11 gusting 17 8.7 4.0
2019-Dec-05 22:10 280 12 8.7 4.0
2019-Dec-05 22:05 280 10 8.7 4.0
2019-Dec-05 22:00 280 11 8.7 4.0
2019-Dec-05 21:55 280 11 8.7 4.0
2019-Dec-05 21:52 280 13 gusting 20 8.7 4.4
2019-Dec-05 21:50 280 16 8.7 4.0
2019-Dec-05 21:45 280 15 8.7 4.0
2019-Dec-05 21:40 280 16 gusting 22 8.7 4.0
2019-Dec-05 21:35 270 11 8.7 4.0
2019-Dec-05 21:30 290 15 gusting 20 8.7 4.0
2019-Dec-05 21:25 280 13 gusting 19 8.7 4.0
2019-Dec-05 21:20 280 14 8.7 4.0
2019-Dec-05 21:15 280 19 8.7 4.0
2019-Dec-05 21:10 280 10 8.7 5.0
2019-Dec-05 21:05 290 15 8.7 5.0
2019-Dec-05 21:00 290 15 8.7 5.0
2019-Dec-05 20:55 280 9 gusting 15 8.7 5.0
2019-Dec-05 20:52 300 15 gusting 26 8.7 5.0
2019-Dec-05 20:50 290 17 8.7 5.0
2019-Dec-05 20:45 290 17 gusting 22 8.7 5.0
2019-Dec-05 20:40 290 13 8.7 5.0
2019-Dec-05 20:35 290 13 8.7 5.0
2019-Dec-05 20:30 300 14 8.7 5.0
2019-Dec-05 20:25 290 16 8.7 5.0
2019-Dec-05 20:20 280 14 8.7 5.0
2019-Dec-05 20:15 280 13 8.7 5.0
2019-Dec-05 20:10 280 14 8.7 5.0
2019-Dec-05 20:05 290 13 8.7 5.0
2019-Dec-05 20:00 280 11 8.7 5.0
2019-Dec-05 19:55 280 15 gusting 20 8.7 6.0
2019-Dec-05 19:52 270 12 gusting 20 8.7 5.6
2019-Dec-05 19:50 280 12 8.7 6.0
2019-Dec-05 19:45 290 13 gusting 19 8.7 6.0
2019-Dec-05 19:40 310 16 8.7 6.0
2019-Dec-05 19:35 300 18 8.7 6.0
2019-Dec-05 19:30 290 17 8.7 6.0
2019-Dec-05 19:25 270 11 gusting 18 8.7 6.0
2019-Dec-05 19:20 300 11 8.7 6.0
2019-Dec-05 19:15 310 11 8.7 7.0
2019-Dec-05 19:10 280 10 8.7 7.0
2019-Dec-05 19:05 290 15 gusting 20 8.7 7.0
2019-Dec-05 19:00 290 12 gusting 17 8.7 6.0
2019-Dec-05 18:55 290 13 8.7 6.0
2019-Dec-05 18:52 310 11 gusting 21 8.7 5.6
2019-Dec-05 18:50 300 15 8.7 6.0
2019-Dec-05 18:45 300 13 8.7 6.0
2019-Dec-05 18:40 300 17 8.7 6.0
2019-Dec-05 18:35 300 16 gusting 22 8.7 6.0
2019-Dec-05 18:30 290 18 8.7 6.0
2019-Dec-05 18:25 300 19 8.7 6.0
2019-Dec-05 18:20 290 17 gusting 23 8.7 6.0
2019-Dec-05 18:15 280 15 8.7 7.0
2019-Dec-05 18:10 290 14 gusting 19 8.7 7.0
2019-Dec-05 18:05 290 13 gusting 18 8.7 7.0
2019-Dec-05 18:00 290 16 8.7 6.0
2019-Dec-05 17:55 290 14 8.7 6.0
2019-Dec-05 17:52 300 17 gusting 22 8.7 6.1
2019-Dec-05 17:50 290 16 gusting 20 8.7 6.0
2019-Dec-05 17:45 290 15 8.7 6.0
2019-Dec-05 17:40 280 12 8.7 6.0
2019-Dec-05 17:35 280 14 8.7 6.0
2019-Dec-05 17:30 280 15 8.7 6.0
2019-Dec-05 17:25 290 16 gusting 22 8.7 7.0
2019-Dec-05 17:20 300 16 8.7 7.0
2019-Dec-05 17:15 290 20 8.7 7.0
2019-Dec-05 17:10 280 16 gusting 20 8.7 6.0
2019-Dec-05 17:05 290 15 8.7 6.0
2019-Dec-05 17:00 290 16 8.7 6.0
2019-Dec-05 16:55 290 19 gusting 24 8.7 7.0
2019-Dec-05 16:52 290 15 gusting 25 8.7 7.2
2019-Dec-05 16:50 290 18 8.7 7.0
2019-Dec-05 16:45 280 16 gusting 25 8.7 7.0
2019-Dec-05 16:40 290 17 8.7 6.0
2019-Dec-05 16:35 300 14 8.7 6.0
2019-Dec-05 16:30 310 18 8.7 7.0
2019-Dec-05 16:25 300 15 gusting 20 8.7 7.0
2019-Dec-05 16:20 300 13 8.7 7.0
2019-Dec-05 16:15 280 14 gusting 19 8.7 7.0
2019-Dec-05 16:10 290 12 gusting 17 8.7 7.0
2019-Dec-05 16:05 280 15 gusting 20 8.7 6.0
2019-Dec-05 16:00 280 13 gusting 18 8.7 6.0
2019-Dec-05 15:55 280 11 gusting 16 8.7 7.0
2019-Dec-05 15:52 270 12 8.7 6.1
2019-Dec-05 15:50 270 11 8.7 6.0
2019-Dec-05 15:45 270 13 gusting 18 8.7 7.0
2019-Dec-05 15:40 290 12 8.7 7.0
2019-Dec-05 15:35 290 12 gusting 17 8.7 6.0
2019-Dec-05 15:30 260 14 8.7 6.0
2019-Dec-05 15:25 280 14 8.7 6.0
2019-Dec-05 15:20 280 11 gusting 16 8.7 6.0
2019-Dec-05 15:15 290 11 gusting 16 8.7 6.0
2019-Dec-05 15:10 290 13 8.7 6.0
2019-Dec-05 15:05 290 12 8.7 6.0
2019-Dec-05 15:00 280 11 8.7 6.0
2019-Dec-05 14:55 270 12 8.7 6.0
2019-Dec-05 14:52 290 11 gusting 17 8.7 6.1
2019-Dec-05 14:50 280 11 8.7 6.0
2019-Dec-05 14:45 280 10 gusting 15 8.7 6.0
2019-Dec-05 14:40 280 15 8.7 6.0
2019-Dec-05 14:35 280 9 8.7 6.0
2019-Dec-05 14:30 270 12 8.7 6.0
2019-Dec-05 14:25 270 11 8.7 6.0
2019-Dec-05 14:20 280 12 8.7 6.0
2019-Dec-05 14:15 290 13 8.7 6.0
2019-Dec-05 14:10 280 12 8.7 5.0
2019-Dec-05 14:05 280 11 8.7 5.0
2019-Dec-05 14:00 280 12 8.7 4.0
2019-Dec-05 13:55 280 13 gusting 18 8.7 4.0
2019-Dec-05 13:52 280 13 8.7 4.4
2019-Dec-05 13:50 280 15 8.7 4.0
2019-Dec-05 13:45 280 11 8.7 4.0
2019-Dec-05 13:40 280 12 8.7 4.0
2019-Dec-05 13:35 280 10 gusting 15 8.7 4.0
2019-Dec-05 13:30 280 12 gusting 17 8.7 3.0
2019-Dec-05 13:25 280 9 8.7 3.0
2019-Dec-05 13:20 280 10 gusting 15 8.7 3.0
2019-Dec-05 13:15 280 9 gusting 15 8.7 3.0
2019-Dec-05 13:10 280 11 8.7 3.0
2019-Dec-05 13:05 280 9 8.7 3.0
2019-Dec-05 13:00 280 9 8.7 3.0
2019-Dec-05 12:55 270 7 8.7 3.0
2019-Dec-05 12:52 280 7 8.7 2.8
2019-Dec-05 12:50 270 8 8.7 3.0
2019-Dec-05 12:45 270 8 8.7 3.0
2019-Dec-05 12:40 270 5 8.7 3.0
2019-Dec-05 12:35 270 7 8.7 3.0
2019-Dec-05 12:30 280 6 8.7 2.0
2019-Dec-05 12:25 280 5 8.7 3.0
2019-Dec-05 12:20 270 5 8.7 3.0
2019-Dec-05 12:15 280 6 8.7 3.0
2019-Dec-05 12:10 280 5 8.7 2.0
2019-Dec-05 12:05 270 6 8.7 2.0
2019-Dec-05 12:00 270 6 8.7 2.0
2019-Dec-05 11:55 260 4 8.7 2.0
2019-Dec-05 11:52 270 5 8.7 2.2
2019-Dec-05 11:50 270 4 8.7 2.0
2019-Dec-05 11:45 270 3 8.7 2.0
2019-Dec-05 11:40 290 4 8.7 2.0
2019-Dec-05 11:35 290 4 8.7 2.0
2019-Dec-05 11:30 280 5 8.7 2.0
2019-Dec-05 11:25 280 5 8.7 2.0
2019-Dec-05 11:20 290 5 8.7 2.0
2019-Dec-05 11:15 290 6 8.7 2.0
2019-Dec-05 11:10 290 6 8.7 2.0
2019-Dec-05 11:05 290 6 8.7 2.0
2019-Dec-05 11:00 290 5 8.7 2.0
2019-Dec-05 10:55 290 6 8.7 2.0
2019-Dec-05 10:52 290 6 8.7 1.7
2019-Dec-05 10:50 290 7 8.7 2.0
2019-Dec-05 10:45 290 7 8.7 2.0
2019-Dec-05 10:40 290 7 8.7 2.0
2019-Dec-05 10:35 290 7 8.7 2.0
2019-Dec-05 10:30 280 6 8.7 1.0
2019-Dec-05 10:25 280 6 8.7 1.0
2019-Dec-05 10:20 290 6 8.7 1.0
2019-Dec-05 10:15 290 6 8.7 1.0
2019-Dec-05 10:10 290 6 8.7 1.0
2019-Dec-05 10:05 290 6 8.7 1.0
2019-Dec-05 10:00 290 5 8.7 1.0
2019-Dec-05 09:55 280 5 8.7 2.0
2019-Dec-05 09:52 280 6 8.7 1.7
2019-Dec-05 09:50 270 5 7.8 2.0
2019-Dec-05 09:45 260 5 7.8 2.0
2019-Dec-05 09:40 260 5 7.8 2.0
2019-Dec-05 09:35 270 6 7.8 2.0
2019-Dec-05 09:30 260 5 7.8 2.0
2019-Dec-05 09:25 260 4 7.8 2.0
2019-Dec-05 09:20 260 4 7.8 2.0
2019-Dec-05 09:15 260 5 7.8 2.0
2019-Dec-05 09:10 270 5 7.8 2.0
2019-Dec-05 09:05 260 8 7.8 2.0
2019-Dec-05 09:00 270 5 7.0 2.0
2019-Dec-05 08:55 260 5 7.8 2.0
2019-Dec-05 08:52 260 5 7.8 1.7
2019-Dec-05 08:50 260 5 7.8 2.0
2019-Dec-05 08:45 250 5 7.8 2.0
2019-Dec-05 08:40 260 6 7.8 2.0
2019-Dec-05 08:35 250 5 7.8 2.0
2019-Dec-05 08:30 250 6 7.0 2.0
2019-Dec-05 08:25 250 5 7.0 2.0
2019-Dec-05 08:20 260 5 7.0 2.0
2019-Dec-05 08:15 260 5 7.0 2.0
2019-Dec-05 08:10 260 4 7.0 2.0
2019-Dec-05 08:05 260 5 7.8 2.0
2019-Dec-05 08:00 250 6 7.8 2.0
2019-Dec-05 07:55 260 7 7.8 2.0
2019-Dec-05 07:52 250 6 6.9 2.2
2019-Dec-05 07:50 250 7 7.0 2.0
2019-Dec-05 07:45 260 5 7.0 2.0
2019-Dec-05 07:40 260 7 7.8 3.0
2019-Dec-05 07:35 260 7 7.0 3.0
2019-Dec-05 07:30 250 7 7.0 3.0
2019-Dec-05 07:25 260 6 7.0 3.0
2019-Dec-05 07:20 250 6 7.0 3.0
2019-Dec-05 07:15 260 6 7.0 3.0
2019-Dec-05 07:10 250 7 7.0 3.0
2019-Dec-05 07:05 250 6 7.0 3.0
2019-Dec-05 07:00 250 8 7.0 3.0
2019-Dec-05 06:55 250 8 7.0 3.0
2019-Dec-05 06:52 250 6 6.9 2.8
2019-Dec-05 06:50 250 7 7.0 3.0
2019-Dec-05 06:45 250 6 7.0 3.0
2019-Dec-05 06:40 250 6 7.0 3.0
2019-Dec-05 06:35 250 5 7.0 3.0
2019-Dec-05 06:30 250 6 7.0 3.0
2019-Dec-05 06:25 250 6 7.0 3.0
2019-Dec-05 06:20 250 5 7.0 3.0
2019-Dec-05 06:15 250 6 7.0 3.0
2019-Dec-05 06:10 250 6 7.0 3.0
2019-Dec-05 06:05 250 5 7.0 3.0
2019-Dec-05 06:00 250 6 6.1 3.0
2019-Dec-05 05:55 250 5 6.1 3.0
2019-Dec-05 05:52 260 4 6.1 2.8
2019-Dec-05 05:50 250 5 6.1 3.0
2019-Dec-05 05:45 260 5 6.1 2.0
2019-Dec-05 05:40 260 6 6.1 3.0
2019-Dec-05 05:35 250 5 7.0 3.0
2019-Dec-05 05:30 260 5 7.0 3.0
2019-Dec-05 05:25 250 5 7.0 3.0
2019-Dec-05 05:20 260 5 6.1 3.0
2019-Dec-05 05:15 260 4 6.1 2.0
2019-Dec-05 05:10 260 5 6.1 2.0
2019-Dec-05 05:05 260 5 6.1 2.0
2019-Dec-05 05:00 260 5 6.1 2.0
2019-Dec-05 04:55 250 3 6.1 2.0
2019-Dec-05 04:52 260 5 6.1 2.2
2019-Dec-05 04:50 260 4 6.1 2.0
2019-Dec-05 04:45 260 5 6.1 2.0
2019-Dec-05 04:40 270 6 7.0 2.0
2019-Dec-05 04:35 260 6 7.0 2.0
2019-Dec-05 04:30 260 5 7.0 2.0
2019-Dec-05 04:25 260 5 7.0 2.0
2019-Dec-05 04:20 260 6 7.0 2.0
2019-Dec-05 04:15 260 5 7.0 2.0
2019-Dec-05 04:10 260 5 7.0 2.0
2019-Dec-05 04:05 260 5 7.0 2.0
2019-Dec-05 04:00 260 4 7.8 2.0
2019-Dec-05 03:55 260 5 7.8 2.0
2019-Dec-05 03:52 250 4 7.8 2.2
2019-Dec-05 03:50 260 7 7.8 2.0
2019-Dec-05 03:45 260 5 7.8 2.0
2019-Dec-05 03:40 260 4 7.8 2.0
2019-Dec-05 03:35 270 5 7.8 2.0
2019-Dec-05 03:30 270 6 7.8 3.0
2019-Dec-05 03:25 260 5 7.8 3.0
2019-Dec-05 03:20 260 6 7.8 3.0
2019-Dec-05 03:15 260 6 7.8 3.0
2019-Dec-05 03:10 260 6 7.8 3.0
2019-Dec-05 03:05 260 6 7.8 3.0
2019-Dec-05 03:00 260 6 7.8 3.0
2019-Dec-05 02:55 260 6 7.8 3.0
2019-Dec-05 02:52 260 6 7.8 2.8
2019-Dec-05 02:50 260 6 7.8 3.0
2019-Dec-05 02:45 270 6 7.8 3.0
2019-Dec-05 02:40 250 6 7.8 3.0
2019-Dec-05 02:35 250 7 7.8 3.0
2019-Dec-05 02:30 250 8 7.8 3.0
2019-Dec-05 02:25 250 6 7.8 3.0
2019-Dec-05 02:20 250 7 7.8 3.0
2019-Dec-05 02:15 250 5 7.8 3.0
2019-Dec-05 02:10 250 7 7.8 3.0
2019-Dec-05 02:05 250 6 7.8 3.0
2019-Dec-05 02:00 250 5 8.7 3.0
2019-Dec-05 01:55 250 6 8.7 3.0
2019-Dec-05 01:52 250 6 8.7 2.8
2019-Dec-05 01:50 250 6 8.7 3.0
2019-Dec-05 01:45 250 6 7.8 3.0
2019-Dec-05 01:40 250 4 7.8 2.0
2019-Dec-05 01:35 260 4 7.8 2.0
2019-Dec-05 01:30 260 4 7.8 2.0
2019-Dec-05 01:25 260 5 7.8 2.0
2019-Dec-05 01:20 260 4 8.7 2.0
2019-Dec-05 01:15 260 3 8.7 3.0
2019-Dec-05 01:10 270 4 8.7 3.0
2019-Dec-05 01:05 260 4 8.7 3.0
2019-Dec-05 01:00 270 6 8.7 3.0
2019-Dec-05 00:55 280 6 8.7 3.0
2019-Dec-05 00:52 280 5 8.7 2.8
2019-Dec-05 00:50 280 5 8.7 3.0
2019-Dec-05 00:45 280 5 8.7 3.0
2019-Dec-05 00:40 290 6 8.7 3.0
2019-Dec-05 00:35 290 7 8.7 3.0
2019-Dec-05 00:30 280 7 8.7 2.0
2019-Dec-05 00:25 290 6 8.7 2.0
2019-Dec-05 00:20 290 6 8.7 3.0
2019-Dec-05 00:15 290 7 8.7 3.0
2019-Dec-05 00:10 310 7 8.7 3.0
2019-Dec-05 00:05 290 7 8.7 3.0
2019-Dec-05 00:00 300 7 8.7 3.0
2019-Dec-04 23:55 300 8 8.7 3.0
2019-Dec-04 23:52 290 6 8.7 3.3
2019-Dec-04 23:50 290 7 8.7 3.0
2019-Dec-04 23:45 270 5 8.7 3.0
2019-Dec-04 23:40 260 7 8.7 3.0
2019-Dec-04 23:35 270 7 8.7 3.0
2019-Dec-04 23:30 260 7 8.7 3.0
2019-Dec-04 23:25 260 7 8.7 3.0
2019-Dec-04 23:20 260 6 8.7 3.0
2019-Dec-04 23:15 260 5 8.7 3.0
2019-Dec-04 23:10 250 6 8.7 3.0
2019-Dec-04 23:05 260 6 8.7 3.0
2019-Dec-04 23:00 260 5 8.7 3.0
2019-Dec-04 22:55 250 7 8.7 3.0
2019-Dec-04 22:52 260 6 8.7 3.3
2019-Dec-04 22:50 260 8 8.7 3.0
2019-Dec-04 22:45 260 6 8.7 3.0
2019-Dec-04 22:40 260 6 8.7 3.0
2019-Dec-04 22:35 260 6 8.7 3.0
2019-Dec-04 22:30 260 7 8.7 3.0
2019-Dec-04 22:25 260 7 8.7 3.0
2019-Dec-04 22:20 260 8 8.7 3.0
2019-Dec-04 22:15 260 6 8.7 3.0
2019-Dec-04 22:10 260 7 8.7 3.0
2019-Dec-04 22:05 260 7 8.7 3.0
2019-Dec-04 22:00 260 8 8.7 3.0
2019-Dec-04 21:55 250 6 8.7 4.0
2019-Dec-04 21:52 260 6 8.7 3.9
2019-Dec-04 21:50 260 7 8.7 4.0
2019-Dec-04 21:45 260 8 8.7 4.0
2019-Dec-04 21:40 260 8 8.7 4.0
2019-Dec-04 21:35 260 8 8.7 4.0
2019-Dec-04 21:30 260 7 8.7 4.0
2019-Dec-04 21:25 250 6 8.7 4.0
2019-Dec-04 21:20 250 8 8.7 4.0
2019-Dec-04 21:15 260 9 8.7 4.0
2019-Dec-04 21:10 260 6 8.7 4.0
2019-Dec-04 21:05 270 8 8.7 4.0
2019-Dec-04 21:00 260 7 8.7 4.0
2019-Dec-04 20:55 260 7 8.7 4.0
2019-Dec-04 20:52 280 5 8.7 3.9
2019-Dec-04 20:50 270 5 8.7 4.0
2019-Dec-04 20:45 260 7 8.7 4.0
2019-Dec-04 20:40 270 7 8.7 4.0
2019-Dec-04 20:35 250 5 8.7 4.0
2019-Dec-04 20:30 260 8 8.7 4.0
2019-Dec-04 20:25 260 7 8.7 4.0
2019-Dec-04 20:20 260 6 8.7 4.0
2019-Dec-04 20:15 260 7 8.7 4.0
2019-Dec-04 20:10 260 6 8.7 4.0
2019-Dec-04 20:05 250 7 8.7 4.0
2019-Dec-04 20:00 250 6 8.7 4.0
2019-Dec-04 19:55 250 6 8.7 4.0
2019-Dec-04 19:52 250 6 8.7 4.4
2019-Dec-04 19:50 250 6 8.7 4.0
2019-Dec-04 19:45 260 6 8.7 4.0
2019-Dec-04 19:40 260 6 8.7 4.0
2019-Dec-04 19:35 260 6 8.7 4.0
2019-Dec-04 19:30 260 6 8.7 4.0
2019-Dec-04 19:25 270 9 8.7 4.0
2019-Dec-04 19:20 250 8 8.7 4.0
2019-Dec-04 19:15 260 7 8.7 4.0
2019-Dec-04 19:10 250 6 8.7 4.0
2019-Dec-04 19:05 260 7 8.7 4.0
2019-Dec-04 19:00 250 6 8.7 4.0
2019-Dec-04 18:55 260 6 8.7 4.0
2019-Dec-04 18:52 250 6 8.7 4.4
2019-Dec-04 18:50 250 7 8.7 4.0
2019-Dec-04 18:45 240 8 8.7 4.0
2019-Dec-04 18:40 250 7 8.7 4.0
2019-Dec-04 18:35 250 8 8.7 4.0
2019-Dec-04 18:30 240 6 8.7 4.0
2019-Dec-04 18:25 250 6 8.7 4.0
2019-Dec-04 18:20 250 8 8.7 4.0
2019-Dec-04 18:15 260 9 8.7 4.0
2019-Dec-04 18:10 260 6 8.7 4.0
2019-Dec-04 18:05 250 8 8.7 4.0
2019-Dec-04 18:00 250 7 8.7 4.0
2019-Dec-04 17:55 240 7 8.7 4.0
2019-Dec-04 17:52 260 7 8.7 3.9
2019-Dec-04 17:50 250 6 8.7 4.0
2019-Dec-04 17:45 250 6 8.7 4.0
2019-Dec-04 17:40 250 6 8.7 4.0
2019-Dec-04 17:35 260 8 8.7 4.0
2019-Dec-04 17:30 250 6 8.7 4.0
2019-Dec-04 17:25 260 9 8.7 4.0
2019-Dec-04 17:20 250 6 8.7 4.0
2019-Dec-04 17:15 250 7 8.7 4.0
2019-Dec-04 17:10 260 6 8.7 4.0
2019-Dec-04 17:05 250 6 8.7 4.0
2019-Dec-04 17:00 250 6 8.7 3.0
2019-Dec-04 16:55 250 9 8.7 3.0
2019-Dec-04 16:52 260 6 8.7 3.3
2019-Dec-04 16:50 250 6 8.7 3.0
2019-Dec-04 16:45 260 6 8.7 3.0
2019-Dec-04 16:40 260 6 8.7 3.0
2019-Dec-04 16:35 260 8 8.7 3.0
2019-Dec-04 16:30 260 6 8.7 3.0
2019-Dec-04 16:25 260 7 8.7 3.0
2019-Dec-04 16:20 260 7 8.7 3.0
2019-Dec-04 16:15 270 7 8.7 3.0
2019-Dec-04 16:10 260 8 8.7 3.0
2019-Dec-04 16:05 260 6 8.7 3.0
2019-Dec-04 16:00 260 6 8.7 3.0
2019-Dec-04 15:55 270 8 8.7 3.0
2019-Dec-04 15:52 260 5 8.7 2.8
2019-Dec-04 15:50 260 6 8.7 3.0
2019-Dec-04 15:45 260 7 8.7 3.0
2019-Dec-04 15:40 260 8 8.7 3.0
2019-Dec-04 15:35 260 7 8.7 3.0
2019-Dec-04 15:30 260 6 8.7 2.0
2019-Dec-04 15:25 260 7 8.7 2.0
2019-Dec-04 15:20 260 6 8.7 2.0
2019-Dec-04 15:15 260 7 8.7 2.0
2019-Dec-04 15:10 260 7 8.7 2.0
2019-Dec-04 15:05 260 6 8.7 2.0
2019-Dec-04 15:00 260 6 8.7 2.0
2019-Dec-04 14:55 270 7 8.7 2.0
2019-Dec-04 14:52 260 7 8.7 2.2
2019-Dec-04 14:50 270 7 8.7 2.0
2019-Dec-04 14:45 270 7 8.7 2.0
2019-Dec-04 14:40 260 6 8.7 2.0
2019-Dec-04 14:35 260 6 8.7 2.0
2019-Dec-04 14:30 260 6 8.7 2.0
2019-Dec-04 14:25 260 5 8.7 2.0
2019-Dec-04 14:20 260 6 8.7 2.0
2019-Dec-04 14:15 260 8 8.7 2.0
2019-Dec-04 14:10 260 6 8.7 2.0
2019-Dec-04 14:05 250 6 8.7 2.0
2019-Dec-04 14:00 260 6 8.7 2.0
2019-Dec-04 13:55 250 6 8.7 2.0
2019-Dec-04 13:52 250 6 8.7 1.7
2019-Dec-04 13:50 250 6 8.7 2.0
2019-Dec-04 13:45 260 7 8.7 2.0
2019-Dec-04 13:40 250 6 8.7 2.0
2019-Dec-04 13:35 250 4 8.7 2.0
2019-Dec-04 13:30 250 5 8.7 2.0
2019-Dec-04 13:25 260 6 8.7 2.0
2019-Dec-04 13:20 250 6 8.7 2.0
2019-Dec-04 13:15 260 6 8.7 2.0
2019-Dec-04 13:10 250 6 8.7 2.0
2019-Dec-04 13:05 260 6 8.7 2.0
2019-Dec-04 13:00 260 6 8.7 2.0
2019-Dec-04 12:55 250 4 8.7 2.0
2019-Dec-04 12:52 260 5 8.7 1.1
2019-Dec-04 12:50 260 6 8.7 1.0
2019-Dec-04 12:45 260 4 8.7 1.0
2019-Dec-04 12:40 250 4 8.7 1.0
2019-Dec-04 12:35 260 4 8.7 1.0
2019-Dec-04 12:30 250 4 8.7 1.0
2019-Dec-04 12:25 260 3 8.7 1.0
2019-Dec-04 12:20 250 3 8.7 1.0
2019-Dec-04 12:15 270 3 8.7 1.0
2019-Dec-04 12:10 270 3 8.7 1.0
2019-Dec-04 12:05 270 3 8.7 1.0
2019-Dec-04 12:00 270 3 8.7 1.0
2019-Dec-04 11:55 280 3 8.7 1.0
2019-Dec-04 11:52 270 2 8.7 0.6
2019-Dec-04 11:50 260 3 8.7 1.0
2019-Dec-04 11:45 240 3 8.7 1.0
2019-Dec-04 11:40 260 3 8.7-0.0
2019-Dec-04 11:35 270 4 8.7-0.0
2019-Dec-04 11:30 260 3 8.7-0.0
2019-Dec-04 11:25 260 3 8.7-0.0
2019-Dec-04 11:20 260 4 8.7 1.0
2019-Dec-04 11:15 260 4 8.7 1.0
2019-Dec-04 11:10 250 4 8.7 1.0
2019-Dec-04 11:05 240 3 8.7-0.0
2019-Dec-04 11:00 8.7-0.0
2019-Dec-04 10:55 8.7-1.0
2019-Dec-04 10:52 8.7-1.1
2019-Dec-04 10:50 8.7-1.0
2019-Dec-04 10:45 200 3 8.7-1.0
2019-Dec-04 10:40 8.7-1.0
2019-Dec-04 10:35 8.7-1.0
2019-Dec-04 10:30 8.7-0.0
2019-Dec-04 10:25 250 3 8.7-0.0
2019-Dec-04 10:20 260 4 8.7-0.0
2019-Dec-04 10:15 8.7-0.0
2019-Dec-04 10:10 8.7-1.0
2019-Dec-04 10:05 8.7-1.0
2019-Dec-04 10:00 290 3 8.7-1.0
2019-Dec-04 09:55 8.7-1.0
2019-Dec-04 09:52 280 2 8.7-0.6
2019-Dec-04 09:50 8.7-1.0
2019-Dec-04 09:45 8.7-1.0
2019-Dec-04 09:40 260 3 8.7-1.0
2019-Dec-04 09:35 8.7-1.0
2019-Dec-04 09:30 260 4 8.7-1.0
2019-Dec-04 09:25 260 4 8.7-1.0
2019-Dec-04 09:20 280 4 8.7-1.0
2019-Dec-04 09:15 280 4 8.7-1.0
2019-Dec-04 09:10 280 4 8.7-1.0
2019-Dec-04 09:05 260 5 8.7-1.0
2019-Dec-04 09:00 260 4 8.7-1.0
2019-Dec-04 08:55 260 4 8.7-1.0
2019-Dec-04 08:52 260 5 8.7-0.0
2019-Dec-04 08:50 250 5 8.7-0.0
2019-Dec-04 08:45 250 5 8.7-0.0
2019-Dec-04 08:40 250 5 8.7-1.0
2019-Dec-04 08:35 8.7-1.0
2019-Dec-04 08:30 260 4 8.7-1.0
2019-Dec-04 08:25 8.7-1.0
2019-Dec-04 08:20 8.7-1.0
2019-Dec-04 08:15 8.7-1.0
2019-Dec-04 08:10 8.7-2.0
2019-Dec-04 08:05 8.7-1.0
2019-Dec-04 08:00 8.7-2.0